Weather in Ruda Slaska

Poland     50°15′32″N   18°51′31″E
temp.,
°C
wind,
m/s
gust,
m/s
humid.,
%
clouds,
%
prec.,
mm/h
press.,
hPa
HPBL,
m
7 may, fri
fri723:00+9ssw41168100 0.1 1008871
02:00+7sw1291100 1.9 1007172
05:00+7ssw2890100 1.1 1005512
08:00+8sw71285100 1.3 1005718
11:00+10wsw81279100 0.5 10061270
14:00+12wnw786599 1.1 10071455
17:00+9nw71069100 0.6 10091072
20:00+7nw7126686 0.6 10121076
8 may, sat
sat823:00+3wnw388346 0.0 1016379
02:00+3w5118020 0.0 1018612
05:00+3w4984100 0.0 1019595
08:00+6w47695 0.0 1021646
11:00+9wnw5753100 0.3 10211824
14:00+12nw474173 0.3 10202233
17:00+12sw444585 0.0 10201797
20:00+8n116798 0.0 102119
9 may, sun
sun923:00+7sse236765 0.0 102144
02:00+5sse35735 0.0 1022102
05:00+5sse357029 0.0 102197
08:00+10sse48565 0.0 1020348
11:00+15ssw57445 0.0 10191181
14:00+19ssw57385 0.0 10181489
17:00+19sw57415 0.0 10171404
20:00+15s36575 0.0 1017130
10 may, mon
mon1023:00+12sse24635 0.0 101773
02:00+10sse23775 0.0 101740
05:00+8ese35760 0.0 101674
08:00+13se35565 0.0 1015193
11:00+20sse48415 0.0 1015940
14:00+24sse5936100 0.0 10131843
17:00+23sw69435 0.0 10141306
20:00+19sw511580 0.0 1014386
11 may, tue
tue1123:00+15se35725 0.0 101495
02:00+14ese48750 0.0 1013137
05:00+12ese49770 0.0 1012163
08:00+17se36640 0.0 1012196
11:00+24s58430 0.0 10111231
14:00+26s683536 0.0 10101891
17:00+25ssw584069 0.0 1009783
20:00+20s245631 0.0 100870